sat.trackr.live / text

‹ back to catalog

STARLINK-1272

NORAD 45386 · 2020-019AC

PAYLOAD ACTIVE UNKNOWN

§ Identity

Operator
Country
US
Launch date
2020-03-18
Launch site
AFETR
Launch vehicle
Mass (kg)
RCS (m²)

Purposes: comms

External: N2YO · Heavens-Above · Gunter

§ Orbital elements

Epoch: 2026-09-20T06:00:02.000160Z

Period
89.99 min
Inclination
53.0283°
Eccentricity
0.0001866
Mean motion
16.00101772 rev/d
Perigee alt
272.9 km
Apogee alt
275.4 km
Semi-major
6,652.3 km
B*
2.1213e-3
RAAN
222.0285°
Arg perigee
113.3409°
Mean anomaly
316.5072°
Rev number
597

§ Raw data

STARLINK-12721 45386U 20019AC  26263.25002315  .01109131  63034-3  21213-2 0  99912 45386  53.0283 222.0285 0001866 113.3409 316.5072 16.00101772  5972

JSON: /api/v1/satellites/45386 · /tle

For live sub-satellite position, see the globe view (requires WebGL).

§ Visibility from observer

Set your observer location to see the next 7 days of passes ≥ 10°. The values pass through the URL so the page stays shareable.

No JS? Fill the form by hand. The geolocation button needs JavaScript.